VY2EK-13 Weather Reports


time (UTC)temp
F
wind
direction
speed
knots
gust
knots
rain 1hr
in
rain 24hr
in
rain mn
in
humidity
%
barometer
mb
20260507174516 50 214 2.6 4.3 0.00 0.00 0.23 99 1002.0
20260507174012 50 100 0.0 1.7 0.00 0.00 0.23 99 1002.0
20260507173512 49 112 0.0 3.5 0.00 0.00 0.23 99 1002.0
20260507173012 49 307 1.7 4.3 0.00 0.00 0.23 99 1002.0
20260507172515 49 205 0.0 4.3 0.00 0.00 0.23 99 1002.0
20260507172013 49 167 1.7 2.6 0.00 0.00 0.23 99 1002.0
20260507171512 49 170 3.5 3.5 0.00 0.00 0.23 99 1001.0
20260507171011 49 132 2.6 4.3 0.02 0.00 0.23 98 1002.0
20260507170512 49 156 3.5 7.8 0.02 0.00 0.23 98 1002.0
20260507170012 49 118 0.0 6.1 0.00 0.00 0.23 98 1002.0
20260507165511 49 74 0.9 4.3 0.00 0.00 0.23 98 1002.0
20260507165011 49 39 1.7 4.3 0.00 0.00 0.23 98 1001.0
20260507164512 49 221 0.0 3.5 0.00 0.00 0.23 98 1002.0
20260507164011 49 296 0.0 4.3 0.00 0.00 0.23 98 1002.0
20260507163511 49 142 1.7 5.2 0.00 0.00 0.23 98 1002.0
20260507163012 50 257 3.5 3.5 0.02 0.00 0.23 98 1002.0
20260507162511 50 193 2.6 4.3 0.02 0.00 0.23 98 1002.0
20260507162011 50 69 0.0 5.2 0.00 0.00 0.22 99 1001.0
20260507161512 49 122 2.6 5.2 0.00 0.00 0.22 98 1001.0
20260507161012 49 153 4.3 7.0 0.00 0.00 0.22 98 1002.0
20260507160512 50 113 1.7 3.5 0.02 0.00 0.22 98 1003.0
20260507160012 50 165 1.7 5.2 0.05 0.00 0.22 98 1002.0
20260507155513 50 144 3.5 6.1 0.02 0.00 0.22 98 1003.0
20260507155017 50 225 2.6 6.1 0.02 0.00 0.22 98 1002.0
20260507154512 50 225 2.6 5.2 0.02 0.00 0.22 98 1002.0
20260507154012 50 137 4.3 7.8 0.02 0.00 0.21 98 1002.0
20260507153512 50 134 3.5 7.8 0.00 0.00 0.21 98 1002.0
20260507153012 50 188 1.7 6.1 0.02 0.00 0.21 98 1003.0
20260507152511 50 359 1.7 5.2 0.07 0.00 0.21 98 1003.0
20260507152012 50 113 1.7 7.8 0.07 0.00 0.21 98 1003.0
20260507151512 50 126 2.6 8.7 0.05 0.00 0.20 98 1003.0
20260507151013 51 230 5.2 6.1 0.02 0.00 0.19 98 1003.0
20260507150511 51 165 1.7 8.7 0.09 0.00 0.19 97 1003.0
20260507145544 51 187 6.1 9.6 0.17 0.00 0.17 97 1003.0
20260507145011 51 151 2.6 9.6 0.12 0.00 0.15 97 1003.0
20260507144512 51 273 1.7 8.7 0.12 0.00 0.14 97 1003.0
20260507144011 51 125 8.7 11.3 0.19 0.00 0.13 97 1003.0
20260507143518 51 92 4.3 15.6 0.17 0.00 0.12 97 1003.0
20260507143012 51 114 1.7 8.7 0.07 0.00 0.10 97 1003.0
20260507142512 52 168 9.6 13.0 0.07 0.00 0.09 97 1003.0
20260507142012 52 167 7.0 13.0 0.07 0.00 0.08 98 1002.0
20260507141511 51 155 7.0 9.6 0.05 0.00 0.08 98 1003.0
20260507141012 51 219 8.7 15.6 0.07 0.00 0.07 98 1003.0
20260507140511 52 186 5.2 10.4 0.05 0.00 0.07 98 1003.0
20260507140012 52 178 2.6 7.8 0.00 0.00 0.06 98 1003.0
20260507135512 52 192 6.1 11.3 0.00 0.00 0.06 98 1003.0
20260507135013 52 139 10.4 11.3 0.00 0.00 0.06 98 1003.0
20260507134513 52 161 7.0 13.9 0.00 0.00 0.06 98 1003.0
20260507134011 52 213 5.2 15.6 0.00 0.00 0.06 98 1003.0
20260507133512 52 147 10.4 14.8 0.00 0.00 0.06 98 1002.0
20260507133012 52 150 6.1 9.6 0.00 0.00 0.06 98 1003.0
20260507132512 52 201 6.1 12.2 0.02 0.00 0.06 98 1003.0
20260507132014 52 221 1.7 15.6 0.02 0.00 0.06 98 1003.0
20260507131512 52 220 5.2 12.2 0.00 0.00 0.06 98 1003.0
20260507131012 52 144 2.6 8.7 0.00 0.00 0.06 98 1003.0
20260507130513 52 239 8.7 9.6 0.00 0.00 0.06 98 1003.0
20260507130013 52 157 8.7 12.2 0.00 0.00 0.06 98 1003.0
20260507125511 52 173 5.2 16.5 0.00 0.00 0.06 98 1003.0
20260507125012 52 142 9.6 18.2 0.00 0.00 0.06 98 1003.0
20260507124511 52 155 7.0 12.2 0.00 0.00 0.06 98 1003.0
20260507124012 52 205 5.2 9.6 0.00 0.00 0.06 97 1003.0
20260507123512 52 177 7.8 13.0 0.00 0.00 0.06 97 1003.0
20260507123012 52 146 7.0 13.0 0.00 0.00 0.06 97 1003.0
20260507122512 52 186 6.1 14.8 0.00 0.00 0.06 97 1003.0
20260507122011 52 157 7.0 17.4 0.02 0.00 0.06 97 1003.0
20260507121040 52 227 11.3 19.1 0.02 0.00 0.05 97 1003.0
20260507120511 52 175 7.0 18.2 0.00 0.00 0.05 96 1003.0
20260507120011 52 164 13.0 19.1 0.00 0.00 0.05 96 1003.0
20260507115512 53 159 8.7 15.6 0.00 0.00 0.05 96 1003.0
20260507115012 53 165 11.3 21.7 0.00 0.00 0.05 96 1002.0
20260507114512 53 171 9.6 20.9 0.00 0.00 0.05 97 1002.0
20260507114012 53 154 8.7 18.2 0.00 0.00 0.05 97 1002.0
20260507113512 53 166 9.6 16.5 0.00 0.00 0.05 97 1002.0
20260507113012 53 154 13.9 19.1 0.00 0.00 0.05 97 1002.0
20260507112512 53 140 8.7 18.2 0.00 0.00 0.05 97 1003.0
20260507112011 53 163 5.2 12.2 0.00 0.00 0.05 97 1003.0
20260507111512 52 161 11.3 12.2 0.00 0.00 0.05 96 1003.0
20260507111011 53 187 7.0 12.2 0.02 0.00 0.05 95 1003.0
20260507110511 53 194 7.8 10.4 0.02 0.00 0.05 94 1003.0
20260507110011 53 160 6.1 13.0 0.00 0.00 0.04 93 1003.0
20260507105513 54 168 2.6 13.0 0.00 0.00 0.04 94 1003.0
20260507105011 54 206 4.3 19.1 0.00 0.00 0.04 94 1003.0
20260507104511 54 185 7.0 19.1 0.00 0.00 0.04 94 1003.0
20260507104011 54 163 12.2 20.9 0.00 0.00 0.04 95 1003.0
20260507103511 54 131 13.0 20.9 0.00 0.00 0.04 95 1003.0
20260507103011 53 156 12.2 20.0 0.02 0.00 0.04 95 1002.0
20260507102511 53 153 14.8 20.9 0.02 0.00 0.04 95 1002.0
20260507102012 53 165 6.1 26.1 0.00 0.00 0.04 95 1003.0
20260507101511 53 154 10.4 21.7 0.00 0.00 0.04 95 1002.0
20260507101015 53 142 14.8 22.6 0.00 0.00 0.04 96 1002.0
20260507100511 53 158 11.3 20.9 0.00 0.00 0.04 96 1002.0
20260507100011 53 151 10.4 22.6 0.00 0.00 0.04 96 1002.0
20260507095511 52 154 11.3 16.5 0.00 0.00 0.04 95 1002.0
20260507095011 52 146 8.7 19.1 0.00 0.00 0.04 95 1002.0
20260507094100 53 147 8.7 26.9 0.00 0.00 0.04 95 1003.0
20260507093512 53 145 7.8 23.5 0.02 0.00 0.04 95 1003.0
20260507093011 52 149 13.9 24.3 0.02 0.00 0.04 95 1003.0
20260507092512 52 150 11.3 21.7 0.00 0.00 0.04 95 1003.0
20260507092012 52 169 12.2 21.7 0.00 0.00 0.04 94 1003.0
20260507091511 52 157 7.8 20.0 0.00 0.00 0.04 93 1003.0
20260507091011 53 144 8.7 20.9 0.00 0.00 0.04 93 1003.0
20260507090512 53 146 11.3 15.6 0.00 0.00 0.04 92 1003.0
20260507090012 53 139 13.0 22.6 0.00 0.00 0.04 92 1003.0
20260507085511 53 160 17.4 21.7 0.00 0.00 0.04 91 1003.0
20260507085011 53 153 13.0 18.2 0.00 0.00 0.04 91 1003.0
20260507084512 53 163 12.2 20.0 0.00 0.00 0.04 91 1003.0
20260507084012 53 157 11.3 22.6 0.00 0.00 0.04 91 1004.0
20260507083513 53 155 15.6 20.9 0.00 0.00 0.04 92 1003.0
20260507083011 53 152 11.3 24.3 0.00 0.00 0.04 92 1004.0
20260507082512 53 156 8.7 20.9 0.00 0.00 0.04 92 1004.0
20260507082011 53 123 13.0 18.2 0.00 0.00 0.04 92 1004.0
20260507081512 53 158 8.7 24.3 0.00 0.00 0.04 92 1004.0
20260507081011 53 171 12.2 20.9 0.00 0.00 0.04 92 1004.0
20260507080512 53 164 11.3 20.0 0.00 0.00 0.04 92 1004.0
20260507080011 53 158 13.9 24.3 0.00 0.00 0.04 92 1004.0
20260507075513 53 139 8.7 20.9 0.00 0.00 0.04 92 1004.0
20260507075012 53 155 13.0 25.2 0.00 0.00 0.04 93 1004.0
20260507074512 53 136 14.8 26.9 0.00 0.00 0.04 93 1005.0
20260507074012 53 152 12.2 24.3 0.00 0.00 0.04 93 1004.0
20260507073511 53 161 12.2 21.7 0.00 0.00 0.04 93 1005.0
20260507073012 53 135 11.3 16.5 0.00 0.00 0.04 93 1005.0
20260507072513 53 156 13.9 21.7 0.00 0.00 0.04 93 1005.0
20260507072013 53 149 20.9 21.7 0.00 0.00 0.04 94 1005.0
20260507071512 53 132 6.1 26.9 0.02 0.00 0.04 94 1005.0
20260507071012 53 130 11.3 20.9 0.00 0.00 0.03 95 1005.0
20260507070512 53 143 9.6 14.8 0.00 0.00 0.03 95 1005.0
20260507070013 53 153 12.2 18.2 0.00 0.00 0.03 95 1005.0
20260507065512 53 136 9.6 16.5 0.00 0.00 0.03 94 1005.0
20260507065012 53 145 7.8 19.1 0.00 0.00 0.03 94 1006.0
20260507064512 53 153 13.9 17.4 0.02 0.00 0.03 94 1006.0
20260507064011 53 140 9.6 18.2 0.02 0.00 0.03 94 1006.0
20260507063511 53 127 9.6 15.6 0.00 0.00 0.03 94 1006.0
20260507063012 53 153 8.7 22.6 0.00 0.00 0.03 94 1006.0
20260507062512 53 155 6.1 18.2 0.02 0.00 0.03 93 1006.0
20260507062013 53 154 13.9 20.9 0.02 0.00 0.03 93 1007.0
20260507061512 53 160 17.4 20.9 0.07 0.00 0.02 92 1007.0
20260507061011 53 132 8.7 18.2 0.05 0.00 0.02 91 1007.0
20260507060513 53 140 9.6 15.6 0.05 0.00 0.01 91 1007.0
20260507060011 53 118 10.4 15.6 0.02 0.00 0.00 90 1007.0
20260507055511 53 142 10.4 17.4 0.00 0.00 0.00 90 1007.0
20260507055011 54 165 13.0 22.6 0.00 0.00 0.00 89 1007.0
20260507054513 54 126 8.7 20.0 0.00 0.00 0.00 89 1007.0
20260507054011 54 143 10.4 22.6 0.00 0.00 0.00 88 1007.0
20260507053512 54 147 10.4 20.9 0.00 0.00 0.00 88 1007.0
20260507053011 54 141 10.4 22.6 0.00 0.00 0.00 87 1008.0
20260507052512 54 132 7.8 20.9 0.00 0.00 0.00 86 1008.0
20260507052011 55 157 13.9 14.8 0.00 0.00 0.00 86 1008.0
20260507051511 55 106 7.0 19.1 0.00 0.00 0.00 86 1008.0
20260507051013 55 185 7.0 18.2 0.00 0.00 0.00 87 1008.0
20260507050512 54 147 11.3 20.9 0.00 0.00 0.00 88 1008.0
20260507050015 54 167 7.8 14.8 0.00 0.00 0.00 88 1008.0
20260507045511 54 140 10.4 18.2 0.00 0.00 0.00 88 1008.0
20260507045012 54 142 9.6 15.6 0.00 0.00 0.00 89 1008.0
20260507044511 54 167 10.4 14.8 0.00 0.00 0.00 89 1008.0
20260507044011 54 152 12.2 21.7 0.00 0.00 0.00 88 1008.0
20260507043511 54 144 10.4 18.2 0.00 0.00 0.00 88 1009.0
20260507043011 54 155 8.7 20.9 0.00 0.00 0.00 87 1009.0
20260507042511 55 161 7.0 15.6 0.00 0.00 0.00 87 1009.0
20260507042011 55 156 4.3 12.2 0.00 0.00 0.00 86 1009.0
20260507041512 55 146 8.7 16.5 0.00 0.00 0.00 86 1009.0
20260507041012 55 147 12.2 19.1 0.00 0.00 0.00 86 1009.0
20260507040511 55 159 14.8 18.2 0.00 0.00 0.00 86 1009.0
20260507040014 55 163 12.2 17.4 0.00 0.00 0.00 86 1009.0
20260507035512 55 133 7.8 18.2 0.00 0.00 0.00 86 1009.0
20260507035011 56 159 10.4 16.5 0.00 0.00 0.00 86 1010.0
20260507034511 56 153 9.6 16.5 0.00 0.00 0.00 86 1009.0
20260507034011 56 143 8.7 18.2 0.00 0.00 0.00 86 1009.0
20260507033511 55 147 10.4 19.1 0.00 0.00 0.00 86 1009.0
20260507033012 55 138 8.7 19.1 0.00 0.00 0.00 85 1009.0
20260507032515 55 142 9.6 16.5 0.00 0.00 0.00 85 1009.0
20260507032012 56 135 7.0 15.6 0.00 0.00 0.00 84 1010.0
20260507031514 56 149 7.0 15.6 0.00 0.00 0.00 83 1010.0
20260507031012 56 168 7.8 13.9 0.00 0.00 0.00 83 1010.0
20260507030512 56 123 5.2 19.1 0.00 0.00 0.00 83 1010.0
20260507030012 56 138 10.4 12.2 0.00 0.00 0.00 83 1010.0
20260507025511 56 162 8.7 16.5 0.00 0.00 0.00 82 1010.0
20260507025013 56 159 9.6 18.2 0.00 0.00 0.00 82 1010.0
20260507024511 56 137 4.3 16.5 0.00 0.00 0.00 82 1010.0
20260507024012 57 159 11.3 18.2 0.00 0.00 0.00 81 1010.0
20260507023513 57 134 9.6 16.5 0.00 0.00 0.00 81 1011.0
20260507023011 57 182 8.7 20.9 0.00 0.00 0.00 81 1011.0
20260507022512 57 150 7.0 18.2 0.00 0.00 0.00 81 1011.0
20260507022012 57 164 15.6 21.7 0.00 0.00 0.00 81 1011.0
20260507021512 57 164 11.3 16.5 0.00 0.00 0.00 81 1012.0
20260507021011 57 146 8.7 21.7 0.00 0.00 0.00 80 1011.0
20260507020513 57 166 14.8 17.4 0.00 0.00 0.00 80 1011.0
20260507020013 57 151 12.2 19.1 0.00 0.00 0.00 80 1012.0
20260507015512 58 158 12.2 19.1 0.00 0.00 0.00 80 1012.0
20260507015012 58 165 10.4 17.4 0.00 0.00 0.00 79 1012.0
20260507014512 58 147 13.9 17.4 0.00 0.00 0.00 79 1012.0
20260507014011 58 146 7.8 16.5 0.00 0.00 0.00 78 1012.0
20260507013511 58 163 14.8 17.4 0.00 0.00 0.00 78 1012.0
20260507013012 58 140 12.2 17.4 0.00 0.00 0.00 78 1012.0
20260507012512 58 154 9.6 20.0 0.00 0.00 0.00 78 1012.0
20260507012012 58 150 8.7 16.5 0.00 0.00 0.00 78 1012.0
20260507011511 58 154 12.2 21.7 0.00 0.00 0.00 78 1012.0
20260507011012 58 137 7.0 15.6 0.00 0.00 0.00 77 1012.0
20260507010512 58 172 8.7 16.5 0.00 0.00 0.00 77 1012.0
20260507010013 59 199 3.5 14.8 0.00 0.00 0.00 76 1012.0
20260507005511 59 151 8.7 19.1 0.00 0.00 0.00 76 1012.0
20260507005012 59 172 12.2 19.1 0.00 0.00 0.00 75 1012.0
20260507004511 59 158 7.8 15.6 0.00 0.00 0.00 74 1012.0
20260507004011 60 152 12.2 22.6 0.00 0.00 0.00 74 1012.0
20260507003511 59 150 9.6 19.1 0.00 0.00 0.00 75 1012.0
20260507003011 59 144 8.7 21.7 0.00 0.00 0.00 75 1012.0
20260507002511 59 139 9.6 20.9 0.00 0.00 0.00 75 1012.0
20260507002012 59 141 9.6 15.6 0.00 0.00 0.00 76 1012.0
20260507001513 59 142 15.6 17.4 0.00 0.00 0.00 76 1012.0
20260507001011 59 156 9.6 18.2 0.00 0.00 0.00 76 1012.0
20260507000512 59 174 7.8 15.6 0.00 0.00 0.00 75 1012.0
20260507000011 59 131 6.1 15.6 0.00 0.00 0.00 74 1012.0
20260506235512 60 148 6.1 15.6 0.00 0.00 0.00 73 1012.0
20260506235011 60 188 10.4 21.7 0.00 0.00 0.00 72 1012.0
20260506234514 61 174 12.2 19.1 0.00 0.00 0.00 72 1012.0
20260506234011 61 160 11.3 24.3 0.00 0.00 0.00 72 1012.0
20260506233511 61 158 10.4 19.1 0.00 0.00 0.00 72 1012.0
20260506233014 61 163 9.6 20.0 0.00 0.00 0.00 72 1011.0
20260506232511 61 166 8.7 21.7 0.00 0.00 0.00 72 1012.0
20260506232012 61 164 4.3 18.2 0.00 0.00 0.00 72 1012.0
20260506231511 61 172 10.4 19.1 0.00 0.00 0.00 72 1012.0
20260506231012 61 171 7.8 17.4 0.00 0.00 0.00 72 1011.0
20260506230512 61 139 8.7 19.1 0.00 0.00 0.00 72 1011.0
20260506230011 62 149 12.2 18.2 0.00 0.00 0.00 71 1011.0
20260506225511 62 159 8.7 23.5 0.00 0.00 0.00 71 1011.0
20260506225012 62 160 9.6 21.7 0.00 0.00 0.00 71 1011.0
20260506224514 62 160 7.8 19.1 0.00 0.00 0.00 71 1012.0
20260506224011 62 164 10.4 18.2 0.00 0.00 0.00 72 1011.0
20260506223511 62 156 5.2 16.5 0.00 0.00 0.00 72 1011.0
20260506223012 62 216 4.3 15.6 0.00 0.00 0.00 72 1012.0
20260506222511 61 212 9.6 13.0 0.00 0.00 0.00 72 1011.0
20260506222011 61 178 6.1 16.5 0.00 0.00 0.00 71 1012.0
20260506221511 61 150 7.0 13.0 0.00 0.00 0.00 72 1012.0
20260506221011 61 124 2.6 16.5 0.00 0.00 0.00 71 1012.0
20260506220511 61 186 7.0 12.2 0.00 0.00 0.00 71 1012.0
20260506220012 61 221 7.8 20.9 0.00 0.00 0.00 71 1012.0
20260506215511 61 211 12.2 16.5 0.00 0.00 0.00 71 1012.0
20260506215012 62 109 4.3 11.3 0.00 0.00 0.00 70 1012.0
20260506214515 62 200 7.8 15.6 0.00 0.00 0.00 70 1012.0
20260506214012 62 183 7.8 16.5 0.00 0.00 0.00 70 1012.0
20260506213512 62 196 6.1 14.8 0.00 0.00 0.00 69 1012.0
20260506213011 62 189 7.8 13.0 0.00 0.00 0.00 69 1011.0
20260506212511 63 222 11.3 24.3 0.00 0.00 0.00 69 1012.0
20260506212012 63 193 10.4 14.8 0.00 0.00 0.00 70 1012.0
20260506211512 63 173 5.2 16.5 0.00 0.00 0.00 69 1012.0
20260506211011 63 185 6.1 13.9 0.00 0.00 0.00 69 1012.0
20260506210511 63 135 7.0 15.6 0.00 0.00 0.00 69 1011.0
20260506210012 63 215 7.8 13.0 0.00 0.00 0.00 69 1011.0
20260506205511 63 228 6.1 13.9 0.00 0.00 0.00 68 1011.0
20260506205012 64 175 3.5 11.3 0.00 0.00 0.00 68 1011.0
20260506204511 64 154 5.2 14.8 0.00 0.00 0.00 68 1011.0
20260506204011 64 197 7.8 14.8 0.00 0.00 0.00 68 1011.0
20260506203512 64 222 7.8 12.2 0.00 0.00 0.00 68 1011.0
20260506203011 64 196 6.1 13.0 0.00 0.00 0.00 68 1011.0
20260506202511 64 220 4.3 14.8 0.00 0.00 0.00 68 1011.0
20260506202012 64 181 4.3 12.2 0.00 0.00 0.00 68 1011.0
20260506201512 65 150 9.6 13.9 0.00 0.00 0.00 67 1011.0
20260506201011 65 198 6.1 13.0 0.00 0.00 0.00 67 1011.0
20260506200513 65 222 6.1 15.6 0.00 0.00 0.00 68 1011.0
20260506200012 65 172 15.6 17.4 0.00 0.00 0.00 68 1011.0
20260506195513 64 165 4.3 18.2 0.00 0.00 0.00 69 1011.0
20260506195012 64 221 7.0 13.9 0.00 0.00 0.00 70 1011.0
20260506194511 64 169 3.5 14.8 0.00 0.00 0.00 70 1011.0
20260506194012 64 206 7.8 17.4 0.00 0.00 0.00 70 1011.0
20260506193511 63 223 5.2 14.8 0.00 0.00 0.00 70 1011.0
20260506193012 63 234 7.0 17.4 0.00 0.00 0.00 71 1011.0
20260506192512 63 196 7.8 11.3 0.00 0.00 0.00 70 1012.0
20260506192013 63 179 5.2 8.7 0.00 0.00 0.00 71 1011.0
20260506191513 64 239 5.2 11.3 0.00 0.00 0.00 70 1012.0
20260506191014 64 147 8.7 17.4 0.00 0.00 0.00 71 1012.0
20260506190512 64 154 8.7 12.2 0.00 0.00 0.00 72 1011.0
20260506190012 64 226 5.2 13.0 0.00 0.00 0.00 73 1012.0
20260506185512 64 111 5.2 20.9 0.00 0.00 0.00 73 1012.0
20260506185012 64 168 8.7 15.6 0.00 0.00 0.00 73 1012.0
20260506184512 64 161 7.8 14.8 0.00 0.00 0.00 74 1012.0
20260506184013 63 175 7.8 13.9 0.00 0.00 0.00 74 1012.0
20260506183511 63 203 7.8 13.9 0.00 0.00 0.00 76 1012.0
20260506183012 62 173 8.7 22.6 0.00 0.00 0.00 75 1012.0
20260506182512 62 204 8.7 13.9 0.00 0.00 0.00 75 1012.0
20260506182012 63 181 6.1 16.5 0.00 0.00 0.00 74 1012.0
20260506181511 63 210 5.2 9.6 0.00 0.00 0.00 74 1012.0
20260506181012 63 220 8.7 12.2 0.00 0.00 0.00 74 1012.0
20260506180512 63 212 8.7 22.6 0.00 0.00 0.00 75 1012.0
20260506180011 62 207 9.6 15.6 0.00 0.00 0.00 75 1012.0
20260506175512 62 201 7.8 17.4 0.00 0.00 0.00 76 1012.0
20260506175012 62 196 7.8 15.6 0.00 0.00 0.00 75 1012.0